Flag for India Weather past 2 weeks in Fatehpur, Uttar Pradesh, India

Now
73 °F

Broken clouds.


Feels Like: 76 °F
Forecast: 61 / 74 °F
Wind: No wind

Location: Lucknow / Amausi

Current Time: Mar 3, 2015 at 1:29:04 PM

Latest Report: Mar 3, 2015 at 12:00 PM


Visibility: 2 mi

Pressure: 29.92 "Hg

Humidity: 69%

Dew point: 63 °F

Location of FatehpurLocation

Historic Weather in Fatehpur — Graph

°F

Fatehpur temperature yesterday

Maximum temperature yesterday: 72 °F (at 11:30 AM)
Minimum temperature yesterday: 61 °F (at 12:00 AM)
Average temperature yesterday: 67 °F

Past Weeks' High & Low Weather Summary

 TemperatureHumidityPressure
High88 °F (Feb 20, 2:00 PM)100% (Mar 1, 10:30 AM)30.04 "Hg (Mar 1, 10:30 AM)
Low59 °F (Feb 17, 6:30 AM)40% (Feb 21, 11:00 AM)29.71 "Hg (Feb 26, 4:00 AM)
Average72 °F73%29.89 "Hg
* Reported Feb 16 11:30 AM — Mar 3 12:00 Noon, Fatehpur, Weather by CustomWeather, © 2015

Note: Actual official high and low records may vary slightly from our data, if they occured in-between our weather recording intervals... More about our weather records

Advertising

Fatehpur weather history for previous 24 hours

 ConditionsComfort  
Time TempWeatherWind HumidityBarometerVisibility
12:00 PM
Tue, Mar 3
73 °FBroken clouds.No wind69%29.92 "Hg2 mi
11:30 AM72 °FBroken clouds.No wind78%29.95 "Hg2 mi
10:30 AM66 °FBroken clouds.No wind94%29.98 "Hg1 mi
10:00 AM66 °FFog.No wind88%29.98 "Hg1 mi
9:30 AM66 °FFog.2 mph94%29.98 "Hg1 mi
9:00 AM64 °FLight rain. Cloudy.2 mph94%29.95 "Hg1 mi
8:30 AM64 °FThunderstorms. Cloudy.2 mph94%29.98 "Hg1 mi
7:30 AM64 °FDrizzle. Cloudy.2 mph94%29.95 "Hg1 mi
7:00 AM64 °FFog.2 mph94%29.95 "Hg1 mi
6:00 AM64 °FFog.2 mph94%29.92 "Hg1 mi
5:30 AM64 °FFog.2 mph94%29.92 "Hg1 mi
5:00 AM64 °FFog.2 mph88%29.92 "Hg1 mi
4:00 AM63 °FFog.No wind94%29.89 "Hg1 mi
3:00 AM63 °FFog.No wind94%29.89 "Hg1 mi
2:00 AM63 °FFog.2 mph94%29.92 "Hg1 mi
1:00 AM63 °FFog.No wind94%29.92 "Hg1 mi
12:00 AM63 °FFog.2 mph94%29.95 "Hg1 mi
11:00 PM
Mon, Mar 2
64 °FPartly cloudy.2 mph94%29.95 "Hg2 mi
9:00 PM66 °FPartly cloudy.6 mph88%29.95 "Hg2 mi
8:30 PM66 °FPartly cloudy.5 mph88%29.95 "Hg2 mi
8:00 PM66 °FPartly cloudy.7 mph88%29.92 "Hg2 mi
7:30 PM68 °FLight rain. Partly cloudy.7 mph83%29.92 "Hg2 mi
6:30 PM68 °FBroken clouds.6 mph83%29.89 "Hg2 mi
6:00 PM70 °FBroken clouds.5 mph78%30.04 "Hg3 mi
5:30 PM70 °FBroken clouds.7 mph73%29.89 "Hg3 mi
5:00 PM72 °FBroken clouds.9 mph73%29.89 "Hg3 mi
4:30 PM72 °FBroken clouds.9 mph73%29.86 "Hg3 mi
4:00 PM72 °FBroken clouds.7 mph73%29.89 "Hg3 mi
3:30 PM72 °FBroken clouds.9 mph73%29.89 "Hg3 mi
3:00 PM72 °FBroken clouds.12 mph73%29.89 "Hg3 mi
Weather by CustomWeather, © 2015

See weather overviewHow to use our weather pages